Location: Dalton
(34.7700°N, 84.9700°W)
Time: 21:49:21
(UTC-05:00)

N. Korean satellite - Pass Details

Date: 15 October 2017
Orbit: 461 x 513 km, 97.2° (Epoch: 11 December)

Event Time Altitude Azimuth Distance (km) Brightness Sun altitude
Rises 20:34:38 0° 200° (SSW) 2,548 10.5 -19.2°
Maximum altitude 20:39:43 18° 265° (W) 1,230 9.5 -20.3°
Drops below altitude 10° 20:42:14 10° 310° (NW) 1,649 10.0 -20.8°
Sets 20:44:46 0° 330° (NNW) 2,522 10.7 -21.3°
